BRO-9

导读

BRO-9是法国于2023年4月15日发射的人造卫星,截至2026年3月,该卫星已在轨运行约2年11个月。作为法国近年推进航天任务的组成部分,它依托法国成熟的航天发射技术进入预定轨道。目前公开信息中暂未披露该卫星的具体任务定位,推测其可能服务于技术验证、对地观测或空间科学探测等领域,将持续为法国航天研究或应用服务提供在轨数据支持。

Basic Information
目录编号:
56185
目录名称:
BRO-9
国际标识:
2023-054H
轨道中心:
EARTH
卫星名称:
BRO-9
卫星全名:
--
卫星状态:
已陨落 最后检测时间 2026-06-24
发射日期:
2023-04-15 UTC
国别 :
法国 (FR)
星等 :
--
Orbit Information
数据来源 国际轨道数据
星历时间: 2026-06-24T17:05:51+0800
轨道信息已过期31天
半长轴: 6549.485km
偏心率: 0.0013592
轨道倾角: 97.285°
近地点辐角 210.928°
升交点赤经 94.771°
平近点角 149.122°
近地点: 162.445km
远地点: 180.251km
周期: 87.916分钟
每日圈数: 16.379178
Detailed Information
使用方式:
暂无